sat.trackr.live / text

‹ back to catalog

SAOCOM 1B

NORAD 46265 · 2020-059A

PAYLOAD ACTIVE UNKNOWN

§ Identity

Operator
Country
ARGN
Launch date
2020-08-30
Launch site
AFETR
Launch vehicle
Mass (kg)
RCS (m²)

External: N2YO · Heavens-Above · Gunter

§ Orbital elements

Epoch: 2026-09-20T03:42:40.317984Z

Period
97.16 min
Inclination
97.8908°
Eccentricity
0.0001406
Mean motion
14.82149349 rev/d
Perigee alt
621.6 km
Apogee alt
623.5 km
Semi-major
7,000.7 km
B*
6.5093e-5
RAAN
87.6415°
Arg perigee
80.6219°
Mean anomaly
279.5153°
Rev number
32,755

§ Raw data

SAOCOM 1B1 46265U 20059A   26263.15463331  .00000466  00000+0  65093-4 0  99962 46265  97.8908  87.6415 0001406  80.6219 279.5153 14.82149349327553

JSON: /api/v1/satellites/46265 · /tle

For live sub-satellite position, see the globe view (requires WebGL).

§ Visibility from observer

Set your observer location to see the next 7 days of passes ≥ 10°. The values pass through the URL so the page stays shareable.

No JS? Fill the form by hand. The geolocation button needs JavaScript.

§ Radio — SatNOGS DB

ModeDescriptionDownlinkUplink
BPSK S-band telemetry 2.256 GHz

1 transmitter · refreshed weekly from db.satnogs.org